Date String (YYYY-MM-DD hh:mm:ss) UTC,Instrument flags,absolute air pressure of the measurement (hPa),sample flow rate (lpm),inlet stack bypass flow (lpm),air temperature of the measurement (°C),ambient temperature measured by the external sensor (°C),aerosol sample conditioner tube jacket temperature (°C),OPC LED temperature (°C),internal box temperature (°C),relative humidity of the measurement (%),span deviation,mass concentration of particles derived from Lorenz-Mie calculation of OPC scattering (μg/m³),mass concentration of particles derived from Lorenz-Mie calculation of OPC scattering (μg/m³),mass concentration of particles derived from Lorenz-Mie calculation of OPC scattering (μg/m³)
DateTimeUTC,F1_M11,P_M11,Q1_M11,Q2_M11,T1_M11,T2_M11,T3_M11,T4_M11,T5_M11,U1_M11,ZSPAN_M11,X2_M11,X0_M11,X1_M11
2023-08-22 08:00:00,SystemResetWarning,0834.3,5.00,000.00,028.2,027.0,000.0,036.6,030.0,19.1,0001.3,0006.90,0014.41,0005.95
2023-08-22 08:01:00,SystemResetWarning,0834.3,5.01,000.00,028.3,027.1,000.0,036.6,030.1,19.1,0001.2,0006.95,0014.31,0005.95
2023-08-22 08:02:00,SystemResetWarning,0834.3,5.00,000.00,028.3,026.3,000.0,036.6,030.0,19.3,0001.0,0007.00,0014.40,0005.95
2023-08-22 08:03:00,SystemResetWarning,0834.3,5.00,000.00,028.2,024.2,000.0,036.5,029.6,19.6,0001.5,0007.01,0014.88,0005.97
2023-08-22 08:04:00,SystemResetWarning,0834.4,5.01,000.00,028.1,023.5,000.0,036.3,029.4,19.7,0001.7,0007.03,0014.98,0005.98
2023-08-22 08:05:00,SystemResetWarning,0834.4,5.01,000.00,028.0,023.8,000.0,036.3,029.2,19.8,0001.9,0007.07,0015.38,0006.00
2023-08-22 08:06:00,SystemResetWarning,0834.4,4.99,000.00,027.9,024.2,000.0,036.4,029.2,19.6,0002.1,0007.09,0015.44,0006.03
2023-08-22 08:07:00,SystemResetWarning,0834.4,5.00,000.00,027.9,024.7,000.0,036.4,029.3,19.6,0002.1,0007.11,0015.52,0006.04
2023-08-22 08:08:00,SystemResetWarning,0834.4,5.00,000.00,027.9,025.1,000.0,036.4,029.4,19.8,0002.3,0007.15,0015.52,0006.06
2023-08-22 08:09:00,SystemResetWarning,0834.4,5.00,000.00,027.9,025.5,000.0,036.4,029.5,19.9,0002.3,0007.18,0015.68,0006.08
2023-08-22 08:10:00,SystemResetWarning,0834.4,5.00,000.00,027.9,025.8,000.0,036.4,029.6,19.7,0002.2,0007.22,0015.72,0006.10
2023-08-22 08:11:00,SystemResetWarning,0834.4,5.00,000.00,028.0,026.1,000.0,036.4,029.7,19.7,0002.1,0007.23,0014.66,0006.12
2023-08-22 08:12:00,SystemResetWarning,0834.4,4.99,000.00,028.0,026.4,000.0,036.5,029.8,19.7,0002.0,0007.23,0014.24,0006.14
2023-08-22 08:13:00,SystemResetWarning,0834.4,4.99,000.00,028.0,026.6,000.0,036.5,029.8,19.9,0002.2,0007.26,0014.18,0006.16
2023-08-22 08:14:00,SystemResetWarning,0834.4,5.01,000.00,028.1,026.7,000.0,036.5,029.9,19.8,0001.9,0007.29,0013.84,0006.17
2023-08-22 08:15:00,SystemResetWarning,0834.4,5.01,000.00,028.1,026.9,000.0,036.5,029.9,19.9,0002.0,0007.36,0013.86,0006.19
2023-08-22 08:16:00,SystemResetWarning,0834.4,5.00,000.00,028.2,027.0,000.0,036.5,030.0,19.9,0002.2,0007.41,0013.77,0006.20
2023-08-22 08:17:00,SystemResetWarning,0834.4,5.00,000.00,028.2,027.2,000.0,036.6,030.0,19.8,0002.4,0007.45,0014.09,0006.21
2023-08-22 08:18:00,SystemResetWarning,0834.4,5.00,000.00,028.3,027.3,000.0,036.6,030.1,19.4,0002.0,0007.48,0014.77,0006.23
2023-08-22 08:19:00,SystemResetWarning,0834.4,4.98,000.00,028.3,026.5,000.0,036.6,030.0,19.4,0001.6,0007.48,0014.97,0006.22
2023-08-22 08:20:00,SystemResetWarning,0834.3,5.00,000.00,028.2,024.9,000.0,036.5,029.7,19.5,0001.5,0007.45,0015.18,0006.22
2023-08-22 08:21:00,SystemResetWarning,0834.3,5.01,000.00,028.2,024.7,000.0,036.4,029.6,19.4,0001.7,0007.39,0015.48,0006.23
2023-08-22 08:22:00,SystemResetWarning,0834.3,5.01,000.00,028.1,024.9,000.0,036.4,029.5,19.6,0001.7,0007.37,0014.93,0006.22
2023-08-22 08:23:00,SystemResetWarning,0834.3,5.00,000.00,028.1,025.2,000.0,036.5,029.6,19.9,0001.6,0007.37,0015.25,0006.23
2023-08-22 08:24:00,SystemResetWarning,0834.4,5.00,000.00,028.1,025.6,000.0,036.5,029.7,19.9,0001.5,0007.36,0015.34,0006.23
2023-08-22 08:25:00,SystemResetWarning,0834.4,5.00,000.00,028.1,025.9,000.0,036.5,029.7,19.8,0001.2,0007.36,0015.27,0006.24
2023-08-22 08:26:00,SystemResetWarning,0834.4,5.00,000.00,028.1,026.2,000.0,036.6,029.8,19.7,0001.1,0007.31,0014.98,0006.23
2023-08-22 08:27:00,SystemResetWarning,0834.5,5.00,000.00,028.2,026.4,000.0,036.6,029.9,19.8,0001.0,0007.35,0015.18,0006.24
2023-08-22 08:28:00,SystemResetWarning,0834.5,5.00,000.00,028.2,026.6,000.0,036.6,029.9,19.7,0001.0,0007.39,0015.39,0006.25
2023-08-22 08:29:00,SystemResetWarning,0834.5,5.00,000.00,028.2,026.8,000.0,036.6,030.0,19.6,0001.4,0007.36,0015.09,0006.25
2023-08-22 08:30:00,SystemResetWarning,0834.7,5.00,000.00,028.3,027.0,000.0,036.6,030.0,19.5,0001.5,0007.41,0015.28,0006.28
2023-08-22 08:31:00,SystemResetWarning,0835.0,4.99,000.00,028.3,027.1,000.0,036.7,030.1,19.4,0001.4,0007.45,0015.70,0006.30
2023-08-22 08:32:00,SystemResetWarning,0835.1,5.00,000.00,028.3,026.9,000.0,036.7,030.1,19.3,0001.4,0007.49,0015.69,0006.30
2023-08-22 08:33:00,SystemResetWarning,0835.0,4.99,000.00,028.3,025.0,000.0,036.6,029.8,19.3,0001.4,0007.56,0016.07,0006.31
2023-08-22 08:34:00,SystemResetWarning,0834.7,5.00,000.00,028.2,023.6,000.0,036.5,029.5,19.4,0001.5,0007.58,0015.99,0006.32
2023-08-22 08:35:00,SystemResetWarning,0834.5,5.01,000.00,028.1,023.6,000.0,036.4,029.4,19.4,0001.3,0007.63,0016.63,0006.34
2023-08-22 08:36:00,SystemResetWarning,0834.5,5.01,000.00,028.0,024.0,000.0,036.4,029.3,19.5,0001.5,0007.65,0016.74,0006.35
2023-08-22 08:37:00,SystemResetWarning,0834.5,5.00,000.00,027.9,024.4,000.0,036.4,029.3,19.6,0002.0,0007.77,0017.22,0006.39
2023-08-22 08:38:00,SystemResetWarning,0834.5,5.00,000.00,027.9,024.9,000.0,036.4,029.4,19.6,0002.1,0007.77,0017.14,0006.40
2023-08-22 08:39:00,SystemResetWarning,0834.5,5.00,000.00,027.9,025.3,000.0,036.4,029.5,19.6,0001.6,0007.78,0017.04,0006.41
2023-08-22 08:40:00,SystemResetWarning,0834.4,5.00,000.00,027.9,025.7,000.0,036.5,029.6,19.5,0001.6,0007.83,0016.62,0006.43
2023-08-22 08:41:00,SystemResetWarning,0834.4,5.00,000.00,028.0,026.0,000.0,036.5,029.7,19.5,0001.9,0007.85,0016.27,0006.43
2023-08-22 08:42:00,SystemResetWarning,0834.4,5.00,000.00,028.0,026.2,000.0,036.5,029.7,19.5,0002.1,0007.85,0015.97,0006.44
2023-08-22 08:43:00,SystemResetWarning,0834.4,5.00,000.00,028.0,026.4,000.0,036.5,029.8,19.4,0001.7,0007.88,0016.09,0006.46
2023-08-22 08:44:00,SystemResetWarning,0834.4,5.00,000.00,028.1,026.6,000.0,036.5,029.8,19.4,0001.6,0007.85,0015.59,0006.46
2023-08-22 08:45:00,SystemResetWarning,0834.5,5.00,000.00,028.1,026.8,000.0,036.5,029.9,19.3,0001.5,0007.89,0015.62,0006.46
2023-08-22 08:46:00,SystemResetWarning,0834.5,5.00,000.00,028.2,026.9,000.0,036.6,029.9,19.3,0001.8,0007.90,0015.54,0006.47
2023-08-22 08:47:00,SystemResetWarning,0834.5,4.99,000.00,028.2,027.0,000.0,036.6,030.0,19.2,0001.8,0007.95,0016.43,0006.48
2023-08-22 08:48:00,SystemResetWarning,0834.5,5.00,000.00,028.2,027.1,000.0,036.6,030.0,19.1,0001.2,0007.92,0016.93,0006.47
2023-08-22 08:49:00,SystemResetWarning,0834.5,5.00,000.00,028.3,027.2,000.0,036.7,030.1,19.0,0001.1,0007.87,0016.61,0006.47
2023-08-22 08:50:00,SystemResetWarning,0834.5,5.00,000.00,028.3,027.3,000.0,036.7,030.1,18.9,0001.6,0007.89,0016.36,0006.48
2023-08-22 08:51:00,SystemResetWarning,0834.5,4.98,000.00,028.4,026.5,000.0,036.6,030.0,18.9,0001.5,0007.89,0016.40,0006.48
2023-08-22 08:52:00,SystemResetWarning,0834.4,5.00,000.00,028.3,024.3,000.0,036.5,029.6,18.9,0001.1,0007.87,0016.53,0006.48
2023-08-22 08:53:00,SystemResetWarning,0834.4,5.00,000.00,028.2,023.4,000.0,036.4,029.4,19.0,0001.1,0007.87,0016.67,0006.48
2023-08-22 08:54:00,SystemResetWarning,0834.4,5.01,000.00,028.1,023.7,000.0,036.4,029.3,19.1,0001.2,0007.86,0016.82,0006.47
2023-08-22 08:55:00,SystemResetWarning,0834.4,5.01,000.00,028.0,024.1,000.0,036.4,029.3,19.2,0001.0,0007.91,0017.06,0006.49
2023-08-22 08:56:00,SystemResetWarning,0834.4,5.00,000.00,027.9,024.6,000.0,036.4,029.3,19.2,0001.3,0007.95,0017.87,0006.50
2023-08-22 08:57:00,SystemResetWarning,0834.4,5.00,000.00,027.9,025.0,000.0,036.5,029.4,19.2,0001.3,0007.94,0017.82,0006.49
2023-08-22 08:58:00,SystemResetWarning,0834.3,5.00,000.00,027.9,025.4,000.0,036.5,029.5,19.2,0001.5,0007.90,0017.00,0006.48
2023-08-22 08:59:00,SystemResetWarning,0834.4,4.99,000.00,027.9,025.8,000.0,036.5,029.6,19.2,0001.6,0007.87,0015.82,0006.49
